Bookmark and Share
Track history (hours):
 

Dong Fang Chun

Last reported at 2014-Apr-23 06:22 UTC. Time now 2014-Apr-23 07:17 UTC.
Position N 22°23' E 113°50'.

Length 23 m; draft 1.4 m.

Type: High speed craft. MMSI: 412461320.

NotesDate/timePositionNaut miles runAvg speedWind from/ knotsBaromVisibWave heightAir tempDewpointWater temp
2014-Apr-23 06:22N 22°23' E 113°50'1619.3
2014-Apr-23 05:33N 22°14' E 113°35'1212.2
2014-Apr-23 04:33N 22°21' E 113°46'3 2.6
2014-Apr-23 03:19N 22°22' E 113°49'1520.2
2014-Apr-23 02:34N 22°14' E 113°35'1312.8
2014-Apr-23 01:33N 22°21' E 113°47'1010.2
2014-Apr-23 00:33N 22°29' E 113°55'0 0.0
2014-Apr-22 14:07N 22°29' E 113°55'5 3.1
2014-Apr-22 12:33N 22°24' E 113°54'5 4.9
2014-Apr-22 11:33N 22°29' E 113°55'1413.4
2014-Apr-22 10:31N 22°19' E 113°44'9 9.4
2014-Apr-22 09:33N 22°14' E 113°35'  
2014-Apr-18 08:33N 22°29' E 113°55'0 0.0
2014-Apr-18 06:33N 22°29' E 113°55'1514.1
2014-Apr-18 05:30N 22°19' E 113°43'6 6.3
2014-Apr-18 04:33N 22°16' E 113°37'2120.7
2014-Apr-18 03:33N 22°29' E 113°55'1313.1
2014-Apr-18 02:33N 22°20' E 113°44'7 6.9
2014-Apr-18 01:33N 22°16' E 113°38'2019.9
2014-Apr-18 00:33N 22°29' E 113°55'0 0.1
2014-Apr-17 23:33N 22°29' E 113°55'0 0.0
2014-Apr-17 06:33N 22°29' E 113°55'1313.3
2014-Apr-17 05:33N 22°19' E 113°44'8 8.0
2014-Apr-17 04:33N 22°16' E 113°37'2121.1
2014-Apr-17 03:33N 22°29' E 113°55'1313.3
2014-Apr-17 02:33N 22°19' E 113°44'7 6.6
2014-Apr-17 01:33N 22°16' E 113°38'2020.1
2014-Apr-17 00:33N 22°29' E 113°55'0 0.2
2014-Apr-16 23:33N 22°29' E 113°55'0 0.0
2014-Apr-16 12:11N 22°29' E 113°55'0 0.0
2014-Apr-16 10:34N 22°29' E 113°55'7 4.6
2014-Apr-16 09:05N 22°22' E 113°55'712.8
2014-Apr-16 08:33N 22°29' E 113°55'0 0.0
2014-Apr-16 06:33N 22°29' E 113°55'1414.5
2014-Apr-16 05:33N 22°19' E 113°43'7 6.9
2014-Apr-16 04:33N 22°15' E 113°37'2121.2
2014-Apr-16 03:33N 22°29' E 113°55'1212.4
2014-Apr-16 02:33N 22°20' E 113°45'7 6.8
2014-Apr-16 01:32N 22°16' E 113°39'1919.8
2014-Apr-16 00:33N 22°29' E 113°55'0 0.0
2014-Apr-15 23:33N 22°29' E 113°55'2 0.2
2014-Apr-15 12:34N 22°27' E 113°54'2121.0
2014-Apr-15 11:34N 22°14' E 113°35'3 2.6
2014-Apr-15 10:34N 22°16' E 113°37'2020.4
2014-Apr-15 09:34N 22°29' E 113°55'4 3.7
2014-Apr-15 08:34N 22°25' E 113°53'1919.2
2014-Apr-15 07:33N 22°14' E 113°35'2 1.5
2014-Apr-15 06:34N 22°15' E 113°37'2121.3
2014-Apr-15 05:34N 22°29' E 113°55'2110.4
2014-Apr-15 03:34N 22°16' E 113°37'2120.9
2014-Apr-15 02:34N 22°29' E 113°55'1515.1
2014-Apr-15 01:33N 22°18' E 113°43'5 5.2
2014-Apr-15 00:34N 22°16' E 113°38'2020.1
2014-Apr-14 23:34N 22°29' E 113°55'0 0.1
2014-Apr-14 22:32N 22°29' E 113°55'3 0.3
2014-Apr-14 10:32N 22°26' E 113°53'2020.5
2014-Apr-14 09:32N 22°14' E 113°35'1 1.1
2014-Apr-14 08:33N 22°15' E 113°36'2222.0
2014-Apr-14 07:34N 22°29' E 113°55'1413.9
2014-Apr-14 06:33N 22°19' E 113°44'5 5.1
2014-Apr-14 05:33N 22°17' E 113°39'19 1.1
2014-Apr-13 12:18N 22°29' E 113°55'0 0.0
2014-Apr-13 10:32N 22°29' E 113°55'5 3.9
2014-Apr-13 09:11N 22°24' E 113°54'5 8.2
2014-Apr-13 08:33N 22°29' E 113°55'0 0.0
2014-Apr-13 06:33N 22°29' E 113°55'  

Dump ship's entire track history

sailing weather and tide predictions

Dong Fang Chun — BRZL — position and weather